logo
App data

Shmadow

Inspired by “shmups” and shadows, Shmadow is a modern twin-stick side-scroller that nods to retro arcade gameplay. Use your light to blast through your enemies, unlock new powers, and defeat bosses before the darkness extinguishes you.
Store | Hub | SteamDB | Site
Developer: Extrokold Games Publisher: Extrokold Games
Genre: Action, Indie
Languages: English, French, Italian, German, Spanish - Spain, Polish, Portuguese - Brazil, Russian, Simplified Chinese, Dutch, Japanese, Portuguese
Tags: Indie (36), Action (33), Bullet Hell (30), Twin Stick Shooter (26), Shoot 'Em Up (23), Co-op (22), Great Soundtrack (22), Shooter (22), Difficult (22), 4 Player Local (15), Local Co-Op (13), 2D (5)
Category: Single-player, Multi-player, Shared/Split Screen, Steam Achievements, Full controller support, Steam Trading Cards, Steam Leaderboards, Remote Play Together
Release date: Nov 3, 2015
Price: $1.99
Old userscore: 81% Owners: 20,000 .. 50,000
Followers: 920
Playtime total: 01:02 (average) 01:55 (median)

Steam Spy is still in beta, so expect major bugs.

Owners data:

Access restricted.

This feature is only available to users with special access rights. Sorry.

If you want to proceed, you need to register or log in first and then back Steam Spy on Patreon. Look for Indie or Pro pledge.

Don't forget to use the same email as on Steam Spy!

If you've recently backed Steam Spy on Patreon, please note, that it might take around 15 minutes for your access rights to sync. In most cases you'll need to re-login on Steam Spy too.

Audience in 2 weeks:

Access restricted.

This feature is only available to users with special access rights. Sorry.

If you want to proceed, you need to register or log in first and then back Steam Spy on Patreon. Look for Indie or Pro pledge.

Don't forget to use the same email as on Steam Spy!

If you've recently backed Steam Spy on Patreon, please note, that it might take around 15 minutes for your access rights to sync. In most cases you'll need to re-login on Steam Spy too.

Peak daily concurrent players:

CCU data courtesy of SteamDB. Used with permission.

Hourly concurrent players:

Followers over time

Access restricted.

This feature is only available to users with special access rights. Sorry.

If you want to proceed, you need to register or log in first and then back Steam Spy on Patreon. Look for Indie or Pro pledge.

Don't forget to use the same email as on Steam Spy!

If you've recently backed Steam Spy on Patreon, please note, that it might take around 15 minutes for your access rights to sync. In most cases you'll need to re-login on Steam Spy too.

Views for top 50 videos on YouTube for this game:

Games similar to this one:

# Game Release date
Price
Score rank
(Userscore / Metascore)
Owners
Players
Playtime (Median)
1 Critter Crunch Sep 11, 2012 $6.99N/A (N/A)20,000 .. 50,0000%00:00 (00:00)
2 BIT.TRIP BEAT Nov 2, 2010 $9.99N/A (N/A)200,000 .. 500,0000%00:00 (00:00)
3 Super Splatters Jun 26, 2013 N/AN/A (N/A/73%)50,000 .. 100,0000%00:00 (00:00)
4 Ms. Splosion Man Apr 3, 2013 $9.99N/A (N/A)50,000 .. 100,0000%00:00 (00:00)
5 SOL: Exodus Jan 25, 2012 $7.99N/A (N/A/57%)50,000 .. 100,0000%00:00 (00:00)
6 Titan Attacks! Feb 3, 2012 $12.99N/A (N/A)50,000 .. 100,0000%00:00 (00:00)
7 BIT.TRIP CORE Oct 2, 2012 $9.99N/A (N/A)50,000 .. 100,0000%00:00 (00:00)
8 BIT.TRIP VOID Dec 19, 2012 $9.99N/A (N/A)20,000 .. 50,0000%00:00 (00:00)
9 Tales From Space: Mutant Blobs Attack Aug 15, 2012 $9.99N/A (N/A/83%)100,000 .. 200,0000%00:00 (00:00)
10 All Zombies Must Die!: Scorepocalypse Apr 19, 2012 $4.99N/A (N/A)20,000 .. 50,0000%00:00 (00:00)
11 Unmechanical Aug 8, 2012 $9.99N/A (N/A/74%)100,000 .. 200,0000%00:00 (00:00)
12 Sugar Cube: Bittersweet Factory Nov 7, 2012 $6.99N/A (N/A)20,000 .. 50,0000%00:00 (00:00)
13 Party of Sin Dec 13, 2012 $5.99N/A (N/A)50,000 .. 100,0000%00:00 (00:00)
14 Home Aug 31, 2012 $4.99N/A (N/A/69%)200,000 .. 500,0000%00:00 (00:00)
15 Ultratron Mar 18, 2013 $12.99N/A (N/A)100,000 .. 200,0000%00:00 (00:00)
16 Cargo Commander Nov 1, 2012 $2.99N/A (N/A)100,000 .. 200,0000%00:00 (00:00)
17 Puddle Nov 9, 2012 $7.99N/A (N/A)100,000 .. 200,0000%00:00 (00:00)
18 Retro/Grade Mar 20, 2013 $9.99N/A (N/A)50,000 .. 100,0000%00:00 (00:00)
19 Papo & Yo Apr 18, 2013 $14.99N/A (N/A/70%)200,000 .. 500,0000%00:00 (00:00)
20 Dream Jul 31, 2015 $8.99N/A (N/A/59%)50,000 .. 100,0000%00:00 (00:00)
21 Bad Hotel Oct 16, 2013 $4.99N/A (N/A)50,000 .. 100,0000%00:00 (00:00)
22 Godus Dec 23, 1988 $14.99N/A (N/A)200,000 .. 500,0000%00:00 (00:00)
23 Wake Nov 1, 1984 $4.99N/A (N/A)0 .. 20,0000%00:00 (00:00)
24 Zack Zero Apr 29, 2013 $2.99N/A (N/A)50,000 .. 100,0000%00:00 (00:00)
25 Element4l May 24, 2013 $8.99N/A (N/A/77%)50,000 .. 100,0000%00:00 (00:00)
26 Intake Nov 6, 2013 $9.99N/A (N/A)20,000 .. 50,0000%00:00 (00:00)
27 Super Puzzle Platformer Deluxe May 24, 2013 $7.99N/A (N/A)20,000 .. 50,0000%00:00 (00:00)
28 Poöf Nov 8, 2013 $6.99N/A (N/A)20,000 .. 50,0000%00:00 (00:00)
29 The Novelist Dec 10, 2013 $4.99N/A (N/A/66%)100,000 .. 200,0000%00:00 (00:00)
30 Knytt Underground Oct 25, 2013 $6.99N/A (N/A)50,000 .. 100,0000%00:00 (00:00)
31 Omegalodon Sep 20, 2013 $9.99N/A (N/A)20,000 .. 50,0000%00:00 (00:00)
32 Gravity Ghost Jan 26, 2015 $14.99N/A (N/A/75%)20,000 .. 50,0000%00:00 (00:00)
33 Constant C Mar 7, 2014 $9.99N/A (N/A/60%)0 .. 20,0000%00:00 (00:00)
34 Solar Flux Oct 24, 2013 $9.99N/A (N/A)100,000 .. 200,0000%00:00 (00:00)
35 Maia Nov 23, 2018 $24.99N/A (N/A)20,000 .. 50,0000%00:00 (00:00)
36 FOTONICA Nov 6, 2014 $14.99N/A (N/A/71%)50,000 .. 100,0000%00:00 (00:00)
37 Gentlemen! Nov 5, 2013 $4.99N/A (N/A)20,000 .. 50,0000%00:00 (00:00)
38 Escape Goat 2 Mar 24, 2014 $9.99N/A (N/A/76%)50,000 .. 100,0000%00:00 (00:00)
39 Survivor Squad Jan 21, 2015 $2.99N/A (N/A)100,000 .. 200,0000%00:00 (00:00)
40 Montague's Mount Nov 19, 2013 $4.99N/A (N/A/39%)20,000 .. 50,0000%00:00 (00:00)
41 Ballpoint Universe - Infinite Dec 17, 2013 $3.99N/A (N/A)50,000 .. 100,0000%00:00 (00:00)
42 STARWHAL Sep 29, 2014 $11.99N/A (N/A)50,000 .. 100,0000%00:00 (00:00)
43 Full Bore May 6, 2014 $14.99N/A (N/A/72%)20,000 .. 50,0000%00:00 (00:00)
44 A-Men Jan 24, 2014 $9.99N/A (N/A)0 .. 20,0000%00:00 (00:00)
45 Imagine Me Dec 9, 2014 $2.99N/A (N/A)20,000 .. 50,0000%00:00 (00:00)
46 Procyon Feb 26, 2014 $3.99N/A (N/A)20,000 .. 50,0000%00:00 (00:00)
47 Montas Mar 24, 2014 $9.99N/A (N/A)0 .. 20,0000%00:00 (00:00)
48 Jones On Fire Mar 14, 2013 $2.99N/A (N/A)50,000 .. 100,0000%00:00 (00:00)
49 10 Second Ninja Mar 5, 2014 $1.99N/A (N/A/72%)50,000 .. 100,0000%00:00 (00:00)
50 Labyrinthine Dreams May 26, 2015 $1.99N/A (N/A)50,000 .. 100,0000%00:00 (00:00)
51 Pulstar Jun 11, 2014 $1.99N/A (N/A)20,000 .. 50,0000%00:00 (00:00)
52 T.E.C. 3001 Apr 10, 2014 N/AN/A (N/A)20,000 .. 50,0000%00:00 (00:00)
53 Munin Jun 10, 2014 $4.99N/A (N/A/68%)200,000 .. 500,0000%00:00 (00:00)
54 Rabbit Hole 3D: Steam Edition Apr 25, 2014 $2.99N/A (N/A)50,000 .. 100,0000%00:00 (00:00)
55 Kromaia Oct 23, 2014 $19.99N/A (N/A/68%)20,000 .. 50,0000%00:00 (00:00)
56 ReignMaker Apr 16, 2014 $14.99N/A (N/A)50,000 .. 100,0000%00:00 (00:00)
57 Autocraft Sep 20, 2017 $9.99N/A (N/A)0 .. 20,0000%00:00 (00:00)
58 Volt Apr 14, 2014 $0.99N/A (N/A)100,000 .. 200,0000%00:00 (00:00)
59 Three Dead Zed Jul 7, 2014 $5.99N/A (N/A)100,000 .. 200,0000%00:00 (00:00)
60 Starship Corporation May 3, 2018 $19.99N/A (N/A)100,000 .. 200,0000%00:00 (00:00)
61 Uriel's Chasm Sep 12, 2014 $4.99N/A (N/A)200,000 .. 500,0000%00:00 (00:00)
62 Arson and Plunder: Unleashed Sep 25, 2015 $0.99N/A (N/A)20,000 .. 50,0000%00:00 (00:00)
63 Road Not Taken Aug 5, 2014 $14.99N/A (N/A/75%)50,000 .. 100,0000%00:00 (00:00)
64 Pivvot Jul 14, 2014 $4.99N/A (N/A)20,000 .. 50,0000%00:00 (00:00)
65 Stranded May 20, 2014 $0.99N/A (N/A)50,000 .. 100,0000%00:00 (00:00)
66 TownCraft Feb 25, 2015 $9.99N/A (N/A)0 .. 20,0000%00:00 (00:00)
67 Dreaming Sarah Mar 12, 2015 $5.99N/A (N/A)200,000 .. 500,0000%00:00 (00:00)
68 Captain Forever Remix Jun 3, 2016 $9.99N/A (N/A)20,000 .. 50,0000%00:00 (00:00)
69 Frederic: Resurrection of Music May 16, 2014 $2.99N/A (N/A)100,000 .. 200,0000%00:00 (00:00)
70 Frederic: Evil Strikes Back May 23, 2014 $7.99N/A (N/A)50,000 .. 100,0000%00:00 (00:00)
71 Rhythm Destruction Jun 16, 2014 $4.99N/A (N/A)50,000 .. 100,0000%00:00 (00:00)
72 Boson X Sep 15, 2014 $2.99N/A (N/A)200,000 .. 500,0000%00:00 (00:00)
73 Concursion Jun 6, 2014 $4.99N/A (N/A/66%)20,000 .. 50,0000%00:00 (00:00)
74 Echo of the Wilds Jun 10, 2014 $6.99N/A (N/A)100,000 .. 200,0000%00:00 (00:00)
75 Iron Fisticle Sep 16, 2014 $8.99N/A (N/A)50,000 .. 100,0000%00:00 (00:00)
76 Fancy Skulls Jun 16, 2014 $8.99N/A (N/A)50,000 .. 100,0000%00:00 (00:00)
77 Curses 'N Chaos Aug 18, 2015 $9.99N/A (N/A)20,000 .. 50,0000%00:00 (00:00)
78 Back to Bed Aug 6, 2014 $5.99N/A (N/A)1,000,000 .. 2,000,0000%00:00 (00:00)
79 NEON STRUCT May 20, 2015 $17.99N/A (N/A/62%)50,000 .. 100,0000%00:00 (00:00)
80 OTTTD Aug 6, 2014 $7.99N/A (N/A)20,000 .. 50,0000%00:00 (00:00)
81 The Masterplan Jun 4, 2015 $19.99N/A (N/A/68%)50,000 .. 100,0000%00:00 (00:00)
82 A City Sleeps Oct 16, 2014 $9.99N/A (N/A)20,000 .. 50,0000%00:00 (00:00)
83 Velocibox Sep 8, 2014 $4.99N/A (N/A)50,000 .. 100,0000%00:00 (00:00)
84 Squishy the Suicidal Pig Oct 23, 2014 $5.99N/A (N/A)200,000 .. 500,0000%00:00 (00:00)
85 Chariot Nov 12, 2014 $1.49N/A (N/A/76%)100,000 .. 200,0000%00:00 (00:00)
86 Ninja Pizza Girl Sep 30, 2015 $6.99N/A (N/A/82%)50,000 .. 100,0000%00:00 (00:00)
87 Horizon Shift May 29, 2015 $4.99N/A (N/A)100,000 .. 200,0000%00:00 (00:00)
88 Instant Dungeon! Nov 25, 2014 $1.99N/A (N/A)0 .. 20,0000%00:00 (00:00)
89 Super Life of Pixel Oct 22, 2014 $9.99N/A (N/A)20,000 .. 50,0000%00:00 (00:00)
90 The Deer God Feb 27, 2015 $14.99N/A (N/A/59%)20,000 .. 50,0000%00:00 (00:00)
91 Pix the Cat Jan 29, 2015 $0.99N/A (N/A/77%)50,000 .. 100,0000%00:00 (00:00)
92 Tulpa Jan 29, 2015 $2.99N/A (N/A)50,000 .. 100,0000%00:00 (00:00)
93 Phoenix Force Nov 13, 2014 $0.99N/A (N/A)100,000 .. 200,00014.29%02:31 (00:50)
94 Dwarf Tower Dec 23, 2014 $0.99N/A (N/A)20,000 .. 50,0000%00:00 (00:00)
95 Sky Mercenaries Dec 16, 2014 $9.99N/A (N/A)20,000 .. 50,0000%00:00 (00:00)
96 Bloody Streets Mar 12, 2015 $4.99N/A (N/A)20,000 .. 50,0000%00:00 (00:00)
97 Chronicles of a Dark Lord: Episode 1 Tides of Fate Complete Dec 19, 2014 N/AN/A (N/A)50,000 .. 100,0000%00:00 (00:00)
98 Four Sided Fantasy Aug 30, 2016 $9.99N/A (N/A)50,000 .. 100,0000%00:00 (00:00)
99 Bermuda Mar 17, 2015 $2.99N/A (N/A)20,000 .. 50,0000%00:00 (00:00)
100 Ukrainian Ninja Dec 23, 2014 FreeN/A (N/A)100,000 .. 200,0000%00:00 (00:00)
101 TIMEframe Jul 7, 2015 $5.99N/A (N/A)50,000 .. 100,0000%00:00 (00:00)
102 Tomb of Tyrants Jun 25, 2015 $7.99N/A (N/A)20,000 .. 50,0000%00:00 (00:00)
103 On A Roll 3D Feb 12, 2015 $3.99N/A (N/A)50,000 .. 100,0000%00:00 (00:00)
104 Glorkian Warrior: The Trials Of Glork Mar 24, 2015 $3.99N/A (N/A)20,000 .. 50,0000%00:00 (00:00)
105 Countless Rooms of Death Feb 20, 2014 $0.99N/A (N/A)20,000 .. 50,0000%00:00 (00:00)
106 It came from space and ate our brains Mar 19, 2015 $14.99N/A (N/A)200,000 .. 500,0000%00:00 (00:00)
107 Three Fourths Home: Extended Edition Mar 20, 2015 $4.99N/A (N/A/77%)20,000 .. 50,0000%00:00 (00:00)
108 Rats - Time is running out! Aug 19, 2015 N/AN/A (N/A)50,000 .. 100,0000%00:00 (00:00)
109 Copy Kitty Apr 19, 2018 $14.99N/A (N/A)20,000 .. 50,0000%00:00 (00:00)
110 Scribble Space Jun 1, 2015 $1.99N/A (N/A)20,000 .. 50,0000%00:00 (00:00)
111 Reflections Jun 26, 2015 $9.99N/A (N/A)0 .. 20,0000%00:00 (00:00)
112 Porcunipine May 21, 2015 $9.99N/A (N/A)20,000 .. 50,0000%00:00 (00:00)
113 Star Horizon May 28, 2015 $9.99N/A (N/A)0 .. 20,0000%00:00 (00:00)
114 NEO AQUARIUM - The King of Crustaceans - Jun 8, 2015 $1.79N/A (N/A)50,000 .. 100,0000%00:00 (00:00)
115 Centauri Sector Jun 23, 2015 $4.99N/A (N/A)0 .. 20,0000%00:00 (00:00)
116 Home is Where One Starts... May 12, 2015 $2.99N/A (N/A)20,000 .. 50,0000%00:00 (00:00)
117 Beyond Eyes Aug 11, 2015 N/AN/A (N/A/60%)100,000 .. 200,0000%00:00 (00:00)
118 Orbit HD Mar 18, 2015 $1.99N/A (N/A)50,000 .. 100,0000%00:00 (00:00)
119 Soccer Rage Jun 2, 2015 $9.99N/A (N/A)20,000 .. 50,0000%00:00 (00:00)
120 Big Action Mega Fight! Jan 12, 2016 $1.99N/A (N/A)20,000 .. 50,0000%00:00 (00:00)
121 Gryphon Knight Epic Aug 20, 2015 $12.99N/A (N/A/55%)20,000 .. 50,0000%00:00 (00:00)
122 Canabalt Apr 30, 2015 $2.99N/A (N/A)20,000 .. 50,0000%00:00 (00:00)
123 Hare In The Hat Apr 1, 2015 $1.99N/A (N/A)50,000 .. 100,0000%00:00 (00:00)
124 Kiai Resonance Apr 23, 2015 $4.99N/A (N/A)20,000 .. 50,0000%00:00 (00:00)
125 Spellsworn Mar 13, 2018 FreeN/A (N/A)100,000 .. 200,0000%00:00 (00:00)
126 Luna Sky Oct 2, 2015 $12.99N/A (N/A)50,000 .. 100,0000%00:00 (00:00)
127 BRAWL Aug 13, 2015 $14.99N/A (N/A)0 .. 20,0000%00:00 (00:00)
128 Broken Bots Jun 8, 2016 $6.99N/A (N/A)0 .. 20,0000%00:00 (00:00)
129 Vernon's Legacy Sep 23, 2016 $11.99N/A (N/A)0 .. 20,0000%00:00 (00:00)
130 Pixel Star May 22, 2015 $2.99N/A (N/A)20,000 .. 50,0000%00:00 (00:00)
131 Tobari and the Night of the Curious Moon May 26, 2015 $4.99N/A (N/A)0 .. 20,0000%00:00 (00:00)
132 Polyball Dec 1, 2017 $14.99N/A (N/A)200,000 .. 500,0000%00:00 (00:00)
133 Mysterious Space May 15, 2015 $10N/A (N/A)0 .. 20,0000%00:00 (00:00)
134 Treeker: The Lost Glasses Remake May 13, 2015 $2.99N/A (N/A)0 .. 20,0000%00:00 (00:00)
135 Season of 12 Colors Mar 14, 2016 $2.99N/A (N/A)50,000 .. 100,0000%00:00 (00:00)
136 Cosmophony Jul 9, 2015 $4.99N/A (N/A)20,000 .. 50,0000%00:00 (00:00)
137 Impossiball Aug 8, 2017 $0.99N/A (N/A)0 .. 20,0000%00:00 (00:00)
138 Pizza Express Jun 25, 2015 $6.99N/A (N/A)20,000 .. 50,0000%00:00 (00:00)
139 Football, Tactics & Glory Jun 1, 2018 $24.99N/A (N/A)200,000 .. 500,0000%00:00 (00:00)
140 The Adventures of Mr. Bobley Jul 1, 2015 $0.99N/A (N/A)50,000 .. 100,0000%00:00 (00:00)
141 Monument Jun 5, 2015 $1.99N/A (N/A)200,000 .. 500,0000%00:00 (00:00)
142 Western Press Apr 21, 2016 $4.99N/A (N/A)20,000 .. 50,0000%00:00 (00:00)
143 Fortify Apr 8, 2016 $4.99N/A (N/A)0 .. 20,0000%00:00 (00:00)
144 Sky Rogue Aug 24, 2017 $19.99N/A (N/A)50,000 .. 100,0000%00:00 (00:00)
145 Action Alien Jun 26, 2015 $5.99N/A (N/A)100,000 .. 200,0000%00:00 (00:00)
146 8Bit Fiesta - Party Game Sep 30, 2016 FreeN/A (N/A)0 .. 20,0000%00:00 (00:00)
147 RETSNOM Jul 23, 2015 $4.99N/A (N/A)0 .. 20,0000%00:00 (00:00)
148 Dead In Bermuda Aug 27, 2015 $14.99N/A (N/A)20,000 .. 50,0000%00:00 (00:00)
149 Aviary Attorney Dec 21, 2015 $14.99N/A (N/A/77%)20,000 .. 50,0000%00:00 (00:00)
150 none Nov 4, 2015 N/AN/A (N/A)20,000 .. 50,0000%00:00 (00:00)
151 Stray Cat Crossing Aug 28, 2015 $2.99N/A (N/A)20,000 .. 50,0000%00:00 (00:00)
152 Super Trench Attack 2 Nov 6, 2015 $0.59N/A (N/A)20,000 .. 50,0000%00:00 (00:00)
153 A.I. Invasion Sep 30, 2015 $9.99N/A (N/A)0 .. 20,0000%00:00 (00:00)
154 Earth Overclocked Dec 4, 2015 $4.99N/A (N/A)20,000 .. 50,0000%00:00 (00:00)
155 Redemption: Eternal Quest Aug 28, 2015 $0.99N/A (N/A)100,000 .. 200,0000%00:00 (00:00)
156 Angry Arrows Aug 12, 2015 $4.99N/A (N/A)20,000 .. 50,0000%00:00 (00:00)
157 Void Invaders Aug 14, 2015 $2.99N/A (N/A)20,000 .. 50,0000%00:00 (00:00)
158 Blaster Shooter GunGuy! Aug 10, 2015 $0.99N/A (N/A)100,000 .. 200,0000%00:00 (00:00)
159 Dragon's Wake Dec 10, 2015 $3.99N/A (N/A)20,000 .. 50,0000%00:00 (00:00)
160 Kitchen Simulator 2015 Sep 2, 2015 $0.99N/A (N/A)20,000 .. 50,0000%00:00 (00:00)
161 Press X to Not Die Oct 6, 2017 $2.99N/A (N/A)100,000 .. 200,0000%00:00 (00:00)
162 Club Life Apr 13, 2016 $12.99N/A (N/A)20,000 .. 50,0000%00:00 (00:00)
163 Jet Set Knights Jan 1, 2016 $9.99N/A (N/A)20,000 .. 50,0000%00:00 (00:00)
164 1,000 Heads Among the Trees Dec 11, 2015 $4.99N/A (N/A)50,000 .. 100,0000%00:00 (00:00)
165 Dream Factory Nov 2, 2015 $9.99N/A (N/A)20,000 .. 50,0000%00:00 (00:00)
166 Timber and Stone Oct 20, 2015 $4.99N/A (N/A)20,000 .. 50,0000%00:00 (00:00)
167 The Purring Quest Nov 12, 2015 $9.99N/A (N/A)100,000 .. 200,0000%00:00 (00:00)
168 Faron's Fate Oct 15, 2015 $0.99N/A (N/A)0 .. 20,0000%00:00 (00:00)
169 Morphine Oct 28, 2015 $2.99N/A (N/A)50,000 .. 100,0000%00:00 (00:00)
170 Days Under Custody Nov 23, 2015 $4.99N/A (N/A)20,000 .. 50,0000%00:00 (00:00)
171 Planet Diver Nov 30, 2015 $3.99N/A (N/A)0 .. 20,0000%00:00 (00:00)
172 Cosmic Leap Mar 17, 2016 $0.99N/A (N/A)50,000 .. 100,0000%00:00 (00:00)
173 Godus Wars Feb 3, 2016 $14.99N/A (N/A)50,000 .. 100,0000%00:00 (00:00)
174 Bell Ringer Mar 18, 2016 $6.99N/A (N/A)200,000 .. 500,0000%00:00 (00:00)
175 Space Moth DX Jan 22, 2016 $4.99N/A (N/A)20,000 .. 50,0000%00:00 (00:00)
176 PERFECT ANGLE: The puzzle game based on optical illusions Dec 22, 2015 $9.99N/A (N/A)100,000 .. 200,0000%00:00 (00:00)
177 TurnOn Jun 1, 2016 $14.99N/A (N/A/67%)20,000 .. 50,0000%00:00 (00:00)
178 IMSCARED Feb 3, 2016 $3.99N/A (N/A)50,000 .. 100,0000%00:00 (00:00)
179 Tiny Guardians Mar 23, 2016 $9.99N/A (N/A)0 .. 20,0000%00:00 (00:00)
180 Doodle Kingdom Jun 9, 2016 $8.99N/A (N/A)50,000 .. 100,0000%00:00 (00:00)
181 Rencounter Nov 4, 2016 $5.99N/A (N/A)20,000 .. 50,0000%00:00 (00:00)
182 10 Second Ninja X Jul 19, 2016 $9.99N/A (N/A)200,000 .. 500,0000%00:00 (00:00)
183 Empire of the Gods Jan 27, 2016 $1.99N/A (N/A)50,000 .. 100,0000%00:00 (00:00)
184 Mindless Running Feb 18, 2016 $0.99N/A (N/A)20,000 .. 50,0000%00:00 (00:00)
185 Mimpi Dreams Mar 22, 2016 FreeN/A (N/A)20,000 .. 50,0000%00:00 (00:00)
186 Yon Paradox May 6, 2016 $2.99N/A (N/A)0 .. 20,0000%00:00 (00:00)
187 Amigdala Mar 28, 2016 $5.99N/A (N/A)20,000 .. 50,0000%00:00 (00:00)
188 Cube Land Arena Mar 29, 2016 $0.49N/A (N/A)50,000 .. 100,0000%00:00 (00:00)
189 Hero Quest: Tower Conflict Apr 13, 2016 $1.99N/A (N/A)200,000 .. 500,0000%00:00 (00:00)
190 CrazyCars3D Jun 14, 2016 $2.99N/A (N/A)50,000 .. 100,0000%00:00 (00:00)
191 MetaTron Dec 19, 2016 N/AN/A (N/A)0 .. 20,0000%00:00 (00:00)
192 Mainlining Jan 26, 2017 $12.99N/A (N/A/73%)50,000 .. 100,0000%00:00 (00:00)
193 StarsOne Apr 8, 2016 $5.99N/A (N/A)0 .. 20,0000%00:00 (00:00)
194 Domino Sky Apr 5, 2016 $3.99N/A (N/A)100,000 .. 200,0000%00:00 (00:00)
195 OPUS: The Day We Found Earth Apr 22, 2016 $8.99N/A (N/A)100,000 .. 200,0000%00:00 (00:00)
196 Wrath of Anna Apr 2, 2018 $19.99N/A (N/A)50,000 .. 100,0000%00:00 (00:00)
197 Trouble Witches Origin - Episode1 Daughters of Amalgam - Nov 21, 2016 $9.99N/A (N/A)0 .. 20,0000%00:00 (00:00)
198 Moonstone Tavern - A Fantasy Tavern Sim! May 13, 2016 $7.99N/A (N/A)20,000 .. 50,0000%00:00 (00:00)
199 NORTH Apr 27, 2016 $1.99N/A (N/A)200,000 .. 500,0000%00:00 (00:00)
200 Deathwave Jun 9, 2016 $4.99N/A (N/A)0 .. 20,0000%00:00 (00:00)
201 上帝之城 I:监狱帝国 [City of God I - Prison Empire] Jul 9, 2018 $18.99N/A (N/A)100,000 .. 200,0000%00:00 (00:00)
202 Can't Drive This Mar 19, 2021 $12.99N/A (N/A)20,000 .. 50,0000%00:00 (00:00)
203 The Nest Jun 14, 2016 FreeN/A (N/A)0 .. 20,0000%00:00 (00:00)
204 Scanner Sombre Apr 26, 2017 $5.99N/A (N/A/67%)100,000 .. 200,0000%00:00 (00:00)
205 ORCS May 20, 2016 $1.99N/A (N/A)20,000 .. 50,0000%00:00 (00:00)
206 Reflection of Mine Feb 24, 2017 $7.99N/A (N/A)0 .. 20,0000%00:00 (00:00)
207 Star Drifter Jun 1, 2016 $1.99N/A (N/A)200,000 .. 500,0000%00:00 (00:00)
208 Call Of The Mighty Warriors Jun 2, 2016 $4.99N/A (N/A)20,000 .. 50,0007.14%00:59 (00:19)
209 Karma Miwa Aug 12, 2016 FreeN/A (N/A)20,000 .. 50,0000%00:00 (00:00)
210 Super Duper Party Pooper Jun 6, 2016 $0.99N/A (N/A/40%)100,000 .. 200,0000%00:00 (00:00)
211 DashBored Jun 13, 2016 $4.99N/A (N/A)50,000 .. 100,0000%00:00 (00:00)
212 Robot Legions Reborn Jul 19, 2016 $2.99N/A (N/A)20,000 .. 50,0000%00:00 (00:00)
213 Bohemian Killing Jul 21, 2016 $12.99N/A (N/A/55%)20,000 .. 50,0000%00:00 (00:00)
214 Pixel Cup Soccer 17 Nov 1, 2021 $9.99N/A (N/A)0 .. 20,0000%00:00 (00:00)
215 Alteric Jul 13, 2016 $3.99N/A (N/A)20,000 .. 50,0000%00:00 (00:00)
216 The Dark Legions Apr 1, 2004 $1.99N/A (N/A)0 .. 20,0000%00:00 (00:00)
217 You Deserve Aug 19, 2016 $0.99N/A (N/A)20,000 .. 50,0000%00:00 (00:00)
218 Dinosaur Forest May 17, 2017 $1.99N/A (N/A)100,000 .. 200,0000%00:00 (00:00)
219 Wheels of Aurelia Sep 20, 2016 $14.99N/A (N/A/63%)20,000 .. 50,0000%00:00 (00:00)
220 Showdown Adventure Sep 21, 2016 N/AN/A (N/A)20,000 .. 50,0000%00:00 (00:00)
221 Joana's Life Sep 1, 2016 $1.99N/A (N/A)50,000 .. 100,0000%00:00 (00:00)
222 Pinkman Jan 16, 2017 $0.99N/A (N/A)0 .. 20,0000%00:00 (00:00)
223 Intensive Exposure Sep 6, 2016 $4.99N/A (N/A)20,000 .. 50,0000%00:00 (00:00)
224 It Comes Around - A Kinetic Novel Sep 29, 2016 $2.99N/A (N/A)0 .. 20,0000%00:00 (00:00)
225 Starship Annihilator Sep 2, 2016 $0.99N/A (N/A)200,000 .. 500,0006.67%03:44 (01:14)
226 The Gleam: VR Escape the Room Oct 14, 2016 $3.99N/A (N/A)50,000 .. 100,0000%00:00 (00:00)
227 mr.President Prologue Episode Sep 20, 2016 $0.99N/A (N/A)50,000 .. 100,0000%00:00 (00:00)
228 AIRHEART - Tales of broken Wings Jul 24, 2018 $14.99N/A (N/A/62%)20,000 .. 50,0000%00:00 (00:00)
229 BoomTown! Deluxe Oct 14, 2016 $0.54N/A (N/A)20,000 .. 50,0000%00:00 (00:00)
230 Pixel Gladiator Sep 8, 2017 $4.99N/A (N/A)20,000 .. 50,0000%00:00 (00:00)
231 Snake Pass Mar 28, 2017 $19.99N/A (N/A/71%)200,000 .. 500,0000%00:00 (00:00)
232 Wayout Nov 4, 2016 $0.56N/A (N/A)50,000 .. 100,0000%00:00 (00:00)
233 Zolg Dec 2, 2016 $0.99N/A (N/A)0 .. 20,0000%00:00 (00:00)
234 Witch It Oct 22, 2020 $19.99N/A (N/A)200,000 .. 500,0001.02%00:51 (00:17)
235 Introvert Quest Mar 15, 2017 $2.99N/A (N/A)100,000 .. 200,0000%00:00 (00:00)
236 Distant Space Dec 20, 2016 $0.99N/A (N/A)100,000 .. 200,0000%00:00 (00:00)
237 Child Phobia: Nightcoming Fears Dec 20, 2016 $1.99N/A (N/A)20,000 .. 50,0000%00:00 (00:00)
238 Mistwood Heroes Dec 30, 2016 $0.51N/A (N/A)50,000 .. 100,0000%00:00 (00:00)
239 Project LUX Feb 2, 2018 $24.99N/A (N/A)0 .. 20,0000%00:00 (00:00)
240 Starship Theory Jul 4, 2017 FreeN/A (N/A)50,000 .. 100,0000%00:00 (00:00)
241 Three Kingdoms The Last Warlord Feb 4, 2021 $19.99N/A (N/A)50,000 .. 100,0000%00:00 (00:00)
242 GORN Jul 18, 2019 $19.99N/A (N/A/85%)200,000 .. 500,0002.86%00:30 (00:10)
243 Open Sorcery Feb 22, 2017 $3.99N/A (N/A)0 .. 20,0000%00:00 (00:00)
244 Monolith Jun 7, 2017 $7.99N/A (N/A/83%)100,000 .. 200,0000%00:00 (00:00)
245 Guns of Icarus Alliance Mar 31, 2017 $4.99N/A (N/A)100,000 .. 200,0000.45%00:52 (00:17)
246 The Archotek Project Apr 28, 2017 $0.99N/A (N/A)200,000 .. 500,0000%00:00 (00:00)

Tags over time:

Access restricted.

This feature is only available to users with special access rights. Sorry.

If you want to proceed, you need to register or log in first and then back Steam Spy on Patreon. Look for Indie or Pro pledge.

Don't forget to use the same email as on Steam Spy!

If you've recently backed Steam Spy on Patreon, please note, that it might take around 15 minutes for your access rights to sync. In most cases you'll need to re-login on Steam Spy too.

Owners of this game also own:

Access restricted.

This feature is only available to users with special access rights. Sorry.

If you want to proceed, you need to register or log in first and then back Steam Spy on Patreon. Look for Indie or Pro pledge.

Don't forget to use the same email as on Steam Spy!

If you've recently backed Steam Spy on Patreon, please note, that it might take around 15 minutes for your access rights to sync. In most cases you'll need to re-login on Steam Spy too.

Playtime distribution:

Access restricted.

This feature is only available to users with special access rights. Sorry.

If you want to proceed, you need to register or log in first and then back Steam Spy on Patreon. Look for Indie or Pro pledge.

Don't forget to use the same email as on Steam Spy!

If you've recently backed Steam Spy on Patreon, please note, that it might take around 15 minutes for your access rights to sync. In most cases you'll need to re-login on Steam Spy too.

Playtime (2 weeks):

Access restricted.

This feature is only available to users with special access rights. Sorry.

If you want to proceed, you need to register or log in first and then back Steam Spy on Patreon. Look for Indie or Pro pledge.

Don't forget to use the same email as on Steam Spy!

If you've recently backed Steam Spy on Patreon, please note, that it might take around 15 minutes for your access rights to sync. In most cases you'll need to re-login on Steam Spy too.

User reviews:

Login required.

Please register or log in to see this information.